Waarnemingen

Advertentie
Mijn weer
Lanveoc Poulmic, Frankrijk (7109): temperatuur & dauwpunt: 13.08.2019 22:00:00 - 19.08.2019 22:00:00 (CEST)Lanveoc Poulmic, Frankrijk (7109): windsnelheid & windstoten: 13.08.2019 22:00:00 - 19.08.2019 22:00:00 (CEST)Lanveoc Poulmic, Frankrijk (7109): windrichting: 13.08.2019 22:00:00 - 19.08.2019 22:00:00 (CEST)Lanveoc Poulmic, Frankrijk (7109): luchtdruk: 13.08.2019 22:00:00 - 19.08.2019 22:00:00 (CEST)Lanveoc Poulmic, Frankrijk (7109): zicht: 13.08.2019 22:00:00 - 19.08.2019 22:00:00 (CEST)Lanveoc Poulmic, Frankrijk (7109): neerslag: 13.08.2019 22:00:00 - 19.08.2019 22:00:00 (CEST)
Datum & Tijd tt [°C] td [°C] ff [km/u] ff [kn] fx [km/u] fx [kn] dd ppp [hPa] vv [km] rr [mm]
19.08.2019 22:00:00 15,4 11,2 11 6 20 11 W 1022,8 60 0,0
19.08.2019 21:00:00 15,8 12,0 9 5 23 12 W 1022,2 44 0,0
19.08.2019 20:00:00 17,4 11,2 16 9 27 15 W 1021,8 35 0,0
19.08.2019 19:00:00 18,3 12,1 17 9 30 16 W 1021,6 46 0,0
19.08.2019 18:00:00 18,3 12,1 19 11 27 15 WZW 1021,5 19 0,0
19.08.2019 17:00:00 18,9 11,0 18 10 31 17 W 1021,1 20 0,0
19.08.2019 16:00:00 18,9 11,7 23 13 33 18 WNW 1021,0 30 0,0
19.08.2019 15:00:00 18,7 11,3 21 11 35 19 WZW 1020,9 20 0,0
19.08.2019 14:00:00 19,4 12,2 23 12 34 19 WZW 1020,5 33 0,0
19.08.2019 13:00:00 18,9 11,7 18 10 34 18 W 1020,3 54 0,0
19.08.2019 12:00:00 17,7 12,2 20 11 32 17 WZW 1019,9 50 0,0
19.08.2019 11:00:00 17,1 12,4 15 8 23 12 WZW 1019,3 31 0,0
19.08.2019 10:00:00 16,9 12,2 14 8 22 12 W 1018,7 41 0,0
19.08.2019 09:00:00 16,0 12,4 9 5 16 8 WZW 1018,6 20 0,0
19.08.2019 08:00:00 14,5 12,4 10 6 15 8 W 1018,1 18 0,0
19.08.2019 07:00:00 14,2 12,1 10 5 16 9 WZW 1017,5 25 0,0
19.08.2019 06:00:00 14,2 11,9 13 7 21 11 WZW 1017,2 26 0,0
19.08.2019 05:00:00 14,4 12,1 14 8 22 12 WZW 1016,9 20 0,0
19.08.2019 04:00:00 14,7 12,2 14 7 23 13 WZW 1017,1 29 0,0
19.08.2019 03:00:00 14,5 12,4 14 8 25 14 WZW 1016,9 20 0,2
19.08.2019 02:00:00 15,0 12,1 14 8 24 13 WZW 1016,8 20 0,0
19.08.2019 01:00:00 15,0 12,5 18 10 24 13 WZW 1016,7 19 0,0
19.08.2019 00:00:00 15,4 12,5 14 7 25 13 WZW 1016,2 19 0,0
18.08.2019 23:00:00 15,7 12,3 16 9 25 13 WZW 1015,8 26 0,0
18.08.2019 22:00:00 15,6 12,3 17 9 29 16 WZW 1015,3 20 0,0
18.08.2019 21:00:00 15,8 12,0 16 9 32 17 WZW 1014,5 20 0,0
18.08.2019 20:00:00 17,2 11,9 22 12 40 22 WZW 1014,1 23 0,0
18.08.2019 19:00:00 17,9 12,3 27 15 44 24 W 1013,9 19 0,0
18.08.2019 18:00:00 17,7 14,0 23 12 45 24 W 1013,7 18 0,2
18.08.2019 17:00:00 18,3 12,7 28 15 45 25 W 1013,4 29 0,0
18.08.2019 16:00:00 18,9 11,5 26 14 46 25 W 1013,0 20 0,0
18.08.2019 15:00:00 17,8 10,7 26 14 43 23 W 1012,7 19 0,0
18.08.2019 14:00:00 18,8 11,4 27 15 45 24 W 1012,1 20 0,0
18.08.2019 13:00:00 18,3 11,4 27 15 41 22 W 1011,6 19 0,0
18.08.2019 12:00:00 18,0 11,3 26 14 42 23 W 1011,1 17 0,0
18.08.2019 11:00:00 17,6 12,5 22 12 41 22 W 1010,4 17 0,0
18.08.2019 10:00:00 17,6 13,5 19 10 28 15 W 1009,5 16 0,0
18.08.2019 09:00:00 16,0 12,7 14 8 24 13 W 1008,9 19 0,0
18.08.2019 08:00:00 14,9 12,9 18 10 26 14 WNW 1007,9 20 0,0
18.08.2019 07:00:00 14,6 13,3 13 7 31 17 W 1007,3 30 0,0
18.08.2019 06:00:00 15,2 14,4 22 12 32 18 WNW 1006,5 33 0,0
18.08.2019 05:00:00 14,8 14,0 17 9 25 14 WNW 1006,2 35 0,0
18.08.2019 04:00:00 14,6 13,8 13 7 31 17 NW 1005,7 60 0,0
18.08.2019 03:00:00 14,1 13,3 13 7 32 17 OZO 1004,1 60 0,0
18.08.2019 02:00:00 14,3 13,7 11 6 21 12 O 1005,1 18 1,0
18.08.2019 01:00:00 13,6 13,0 6 3 9 5 OZO 1006,5 3,0 2,4
18.08.2019 00:00:00 13,5 12,9 6 3 14 8 ZZW 1007,6 3,6 3,7
17.08.2019 23:00:00 13,9 13,1 11 6 21 11 ZZW 1008,2 2,3 3,4
17.08.2019 22:00:00 14,7 13,2 16 8 24 13 Z 1008,4 3,7 1,2
17.08.2019 21:00:00 15,8 14,3 15 8 28 15 ZZW 1008,7 12 0,0
17.08.2019 20:00:00 16,5 14,9 17 9 30 16 ZZW 1009,1 17 0,0
17.08.2019 19:00:00 16,9 14,9 19 10 30 16 ZW 1010,0 16 0,0
17.08.2019 18:00:00 17,1 15,1 17 9 32 17 ZW 1009,9 16 0,0
17.08.2019 17:00:00 17,4 14,7 18 10 29 16 ZW 1010,0 18 0,0
17.08.2019 16:00:00 17,7 14,8 22 12 35 19 WZW 1010,4 18 0,0
17.08.2019 15:00:00 18,1 15,2 19 11 32 18 WZW 1010,4 16 0,0
17.08.2019 14:00:00 17,8 14,9 21 11 35 19 WZW 1010,1 15 0,0
17.08.2019 13:00:00 17,6 14,7 20 11 29 16 ZW 1010,2 15 0,0
17.08.2019 12:00:00 17,4 15,0 18 10 26 14 WZW 1009,7 18 0,0
17.08.2019 11:00:00 16,6 15,5 12 6 18 10 WZW 1009,8 13 0,0
17.08.2019 10:00:00 16,2 15,2 9 5 14 7 WZW 1009,9 16 0,0
17.08.2019 09:00:00 15,8 15,0 6 3 10 6 ZZW 1009,4 11 0,0
17.08.2019 08:00:00 15,6 14,8 9 5 17 9 WZW 1009,2 14 0,0
17.08.2019 07:00:00 16,1 15,5 11 6 22 12 W 1008,7 15 0,0
17.08.2019 06:00:00 16,5 15,9 16 8 34 18 W 1008,5 20 0,2
17.08.2019 05:00:00 17,2 16,7 20 11 33 18 WZW 1008,4 0,2 0,0
17.08.2019 04:00:00 17,3 16,8 21 11 35 19 ZW 1008,5 0,2 0,4
17.08.2019 03:00:00 17,3 16,8 24 13 42 23 ZW 1008,9 0,3 0,2
17.08.2019 02:00:00 17,3 16,8 25 13 41 22 ZW 1009,0 0,4 0,0
17.08.2019 01:00:00 17,3 16,8 26 14 43 23 ZW 1009,4 1,1 0,2
17.08.2019 00:00:00 17,4 16,8 26 14 44 24 ZW 1009,6 1,8 0,0
16.08.2019 23:00:00 17,3 16,7 24 13 44 24 ZW 1009,8 8 0,0
16.08.2019 22:00:00 17,4 16,8 26 14 52 28 ZW 1009,8 10 0,2
16.08.2019 21:00:00 17,6 17,0 33 18 53 29 ZW 1009,8 6 1,2
16.08.2019 20:00:00 17,0 16,4 31 17 50 27 ZZW 1010,2 3,4 3,1
16.08.2019 19:00:00 16,8 16,2 28 15 48 26 ZZW 1010,8 2,1 3,4
16.08.2019 18:00:00 16,7 15,6 26 14 47 25 ZZW 1011,8 4,4 0,6
16.08.2019 17:00:00 17,0 15,5 27 14 47 25 Z 1012,1 19 0,2
16.08.2019 16:00:00 16,5 15,4 28 15 55 30 Z 1013,2 3,5 0,2
16.08.2019 15:00:00 17,4 14,9 30 16 52 28 Z 1013,5 8 0,0
16.08.2019 14:00:00 18,5 14,6 30 16 55 30 Z 1013,7 22 0,0
16.08.2019 13:00:00 18,7 14,6 32 17 54 29 Z 1014,6 21 0,0
16.08.2019 12:00:00 18,3 14,6 27 15 48 26 Z 1015,0 20 0,0
16.08.2019 11:00:00 17,9 14,4 29 16 44 24 ZZW 1015,7 30 0,0
16.08.2019 10:00:00 17,1 14,6 23 13 40 22 ZZW 1016,0 24 0,0
16.08.2019 09:00:00 16,5 14,3 20 11 36 19 ZZW 1016,4 34 0,0
16.08.2019 08:00:00 16,2 14,2 21 11 33 18 ZZW 1016,6 41 0,0
16.08.2019 07:00:00 16,0 14,0 19 10 31 17 ZZW 1017,1 42 0,0
16.08.2019 06:00:00 15,7 13,9 13 7 24 13 ZZW 1018,0 45 0,0
16.08.2019 05:00:00 15,8 14,8 11 6 18 10 ZZW 1018,4 20 0,0
16.08.2019 04:00:00 15,0 14,0 8 4 14 8 ZZW 1019,2 41 0,0
16.08.2019 03:00:00 14,4 13,6 8 5 14 7 ZZW 1019,5 16 0,0
16.08.2019 02:00:00 14,5 13,7 8 4 14 7 ZZW 1020,4 13 0,0
16.08.2019 01:00:00 15,0 14,4 10 5 15 8 ZZW 1020,9 10 0,0
16.08.2019 00:00:00 14,3 13,5 7 4 10 6 Z 1021,3 3,6 0,0
15.08.2019 23:00:00 15,3 14,2 5 3 13 7 ZZW 1021,4 14 0,0
15.08.2019 22:00:00 16,1 14,1 6 4 14 7 ZZW 1021,3 28 0,0
15.08.2019 21:00:00 17,0 13,7 10 5 18 10 WZW 1021,3 39 0,0
15.08.2019 20:00:00 17,5 12,6 11 6 26 14 WZW 1021,3 60 0,0
15.08.2019 19:00:00 18,0 13,9 19 10 32 17 W 1021,1 29 0,0
15.08.2019 18:00:00 18,3 13,8 22 12 32 17 WZW 1021,2 32 0,0
15.08.2019 17:00:00 19,6 14,0 14 8 30 16 W 1021,2 42 0,0
15.08.2019 16:00:00 18,9 13,7 20 11 33 18 WZW 1021,3 34 0,0
15.08.2019 15:00:00 18,7 14,2 18 10 28 15 W 1021,2 19 0,0
15.08.2019 14:00:00 18,2 14,3 14 8 35 19 W 1021,0 53 0,0
15.08.2019 13:00:00 18,3 13,4 16 9 29 16 W 1020,7 24 0,0
15.08.2019 12:00:00 18,1 12,8 19 10 32 17 W 1020,4 40 0,0
15.08.2019 11:00:00 17,7 12,8 16 9 30 16 WNW 1020,0 53 0,0
15.08.2019 10:00:00 17,2 14,1 17 9 28 15 W 1019,7 20 0,0
15.08.2019 09:00:00 16,7 14,7 16 9 28 15 W 1019,3 17 0,0
15.08.2019 08:00:00 16,4 14,4 19 11 31 17 W 1018,8 18 0,0
15.08.2019 07:00:00 16,3 14,5 15 8 25 14 WNW 1018,1 18 0,0
15.08.2019 06:00:00 16,1 14,5 15 8 25 14 W 1017,7 16 0,0
15.08.2019 05:00:00 16,0 14,4 14 8 25 14 W 1017,5 16 0,0
15.08.2019 04:00:00 15,7 14,4 16 9 24 13 W 1017,5 17 0,0
15.08.2019 03:00:00 15,3 13,7 11 6 21 11 W 1017,3 15 0,0
15.08.2019 02:00:00 15,9 14,1 13 7 31 17 WNW 1017,2 17 0,0
15.08.2019 01:00:00 16,2 14,7 18 10 31 17 W 1017,0 16 0,0
15.08.2019 00:00:00 16,0 14,7 13 7 32 18 W 1016,6 18 0,4
14.08.2019 23:00:00 16,6 15,3 18 10 29 16 W 1016,2 13 0,0
14.08.2019 22:00:00 16,9 15,2 19 10 32 17 W 1015,5 23 0,0
14.08.2019 21:00:00 17,2 15,4 21 11 37 20 W 1015,1 20 0,0
14.08.2019 20:00:00 17,6 15,8 24 13 37 20 W 1014,9 20 0,0
14.08.2019 19:00:00 17,9 15,7 23 13 41 22 W 1014,7 20 0,0
14.08.2019 18:00:00 18,6 16,4 24 13 38 21 W 1014,3 20 0,0
14.08.2019 17:00:00 18,7 16,8 25 13 42 23 W 1014,2 16 0,0
14.08.2019 16:00:00 17,9 17,3 23 13 40 22 W 1014,1 10 0,0
14.08.2019 15:00:00 17,8 17,2 23 12 38 20 WZW 1014,1 0,5 0,0
14.08.2019 14:00:00 17,8 17,3 24 13 38 21 WZW 1014,1 7 0,4
14.08.2019 13:00:00 16,8 16,3 24 13 51 28 ZZW 1014,0 1,7 1,0
14.08.2019 12:00:00 16,1 15,5 27 14 54 29 Z 1014,3 1,4 1,2
14.08.2019 11:00:00 15,7 15,1 31 17 54 29 Z 1014,6 2,3 1,0
14.08.2019 10:00:00 14,8 14,2 29 16 52 28 Z 1015,0 2,6 0,2
14.08.2019 09:00:00 14,6 13,8 26 14 48 26 Z 1015,5 8 0,4
14.08.2019 08:00:00 14,7 13,6 29 16 51 28 ZZW 1015,7 2,9 0,4
14.08.2019 07:00:00 16,5 13,4 21 11 41 22 Z 1016,0 16 0,0
14.08.2019 06:00:00 16,6 13,1 21 12 40 22 ZZW 1016,6 47 0,0
14.08.2019 05:00:00 16,5 13,2 23 13 38 21 ZZW 1017,0 51 0,0
14.08.2019 04:00:00 16,4 13,3 21 12 40 21 ZZW 1017,8 49 0,0
14.08.2019 03:00:00 16,1 13,4 18 10 33 18 Z 1018,6 49 0,0
14.08.2019 02:00:00 16,1 13,0 16 9 32 17 Z 1019,1 49 0,0
14.08.2019 01:00:00 16,1 13,0 16 8 29 16 ZZW 1019,7 54 0,0
14.08.2019 00:00:00 15,8 13,1 12 6 23 13 Z 1020,2 50 0,0
13.08.2019 23:00:00 15,9 13,4 13 7 22 12 ZZW 1020,5 41 0,0
13.08.2019 22:00:00 15,6 12,7 10 5 17 9 ZZW 1020,6 46 0,0

tt = temperatuur
td = dauwpunt
ff = windsnelheid
fx = windstoten
dd = windrichting
ppp = luchtdruk
vv = zicht
rr = neerslag

Weerstations in de omgeving